Location: Quebec
(46.8000°N, 71.2500°W)
Time: 13:44:14
(UTC-04:00)

Tiangong 2 - Pass Details

Date: 08 October 2017
Orbit: 388 x 391 km, 42.8° (Epoch: 21 October)

Event Time Altitude Azimuth Distance (km) Brightness Sun altitude
Exits shadow 05:50:52 - 208° (SSW) 1,877 4.2 -11.5°
Reaches altitude 10° 05:52:25 10° 191° (S) 1,417 3.8 -11.3°
Maximum altitude 05:54:21 15° 154° (SSE) 1,155 3.8 -10.9°
Drops below altitude 10° 05:56:18 10° 116° (ESE) 1,422 5.0 -10.6°
Sets 05:58:59 0° 92° (E) 2,281 7.3 -10.1°
